[[{"header":{"parameterUnit":"m.s-1","parameterCategory":1,"la1":30.2991,"la2":30.254,"lo1":-89.0895,"lo2":-89.0444,"dy":0.0017,"dx":0.0017,"nx":28,"ny":28,"refTime":"2025-07-03T21:00:00:Z","depth":0,"parameterNumber":2,"parameterNumberName":"U-component_of_WINDS"},"data":[0,0,0,0,0,0,0,0,0,0,0,0,0,0,0,0,0,0,0,0,0,0,0,0,0,0,0,0,0,0,0,0,0,0,0,0,0,0,0,0,0,0,0,0,0,0,0,0,0,0,0,0,0,0,0,0,0,0,0.2475,0.2477,0,0.2734,0.2737,0.274,0.2848,0.2847,0.2847,0.2846,0.3118,0.3125,0.3133,0,0,0,0,0,0,0,0,0,0,0,0,0,0.2076,0.2083,0.2474,0.2477,0.2481,0.2734,0.2737,0.2741,0.2848,0.2847,0.2847,0.2846,0.3115,0.3125,0.3134,0,0,0,0,0,0,0,0,0,0,0,0,0,0.2284,0.2085,0.2474,0.2565,0.2575,0.2733,0.2738,0.2742,0.2848,0.2847,0.2847,0.2846,0.3112,0.3124,0.3135,0.3223,0,0,0.3171,0.3176,0,0,0,0,0,0,0,0,0.2272,0.2298,0.2548,0.2559,0.2571,0.2758,0.2697,0.2904,0.2848,0.2745,0.2846,0.2845,0.2999,0.302,0.3071,0.3236,0.3248,0.3172,0.3179,0.3184,0.3187,0,0,0,0,0,0,0,0.2257,0.2288,0.2577,0.2551,0.2566,0.2594,0.2623,0.2736,0.2874,0.2754,0.2762,0.2791,0.3005,0.3059,0.3078,0.3252,0.3171,0.3182,0.3189,0.3193,0.3504,0.3505,0,0,0,0,0,0,0.2227,0.2275,0.2569,0.2585,0.2416,0.2602,0.2634,0.2699,0.2873,0.2898,0.2792,0.2795,0.304,0.3064,0.3088,0.3203,0.3184,0.3194,0.3201,0.3503,0.3504,0.3506,0,0,0,0,0,0,0.2218,0.2252,0.2559,0.2432,0.2474,0.261,0.2682,0.2704,0.2758,0.2901,0.2927,0.2821,0.304,0.3072,0.3189,0.3214,0.32,0.321,0.3501,0.3503,0.3505,0.3434,0,0,0,0,0,0,0.2206,0.2248,0.2282,0.2432,0.248,0.2653,0.2683,0.271,0.2777,0.2785,0.2936,0.296,0.3042,0.3171,0.32,0.323,0.3219,0.35,0.3502,0.3504,0.3435,0.3433,0.3432,0,0,0,0,0,0.2192,0.2253,0.2283,0.2318,0.2524,0.2654,0.2682,0.2773,0.2779,0.2815,0.2907,0.2955,0.3206,0.3182,0.3216,0.325,0.3498,0.3501,0.3504,0.3435,0.3434,0.3432,0,0,0,0,0,0,0.2104,0.2274,0.231,0.2421,0.2522,0.2672,0.272,0.2768,0.2871,0.2874,0.2985,0.3018,0.3126,0.32,0.3169,0.3345,0.3356,0.3366,0.3293,0.3292,0.3291,0.3271,0.3229,0,0,0,0,0,0.2097,0.2187,0.2331,0.2416,0.2464,0.2583,0.2643,0.2705,0.2815,0.2859,0.2959,0.3066,0.3169,0.3235,0.3337,0.3446,0.3481,0.3486,0.3485,0.3483,0.349,0.3554,0.3558,0.3515,0.3515,0.3515,0,0,0.2085,0.2189,0.2239,0.2401,0.2486,0.2578,0.2619,0.2714,0.2784,0.2874,0.299,0.3068,0.3194,0.3307,0.3362,0.3372,0.351,0.3486,0.3484,0.3493,0.3557,0.3561,0.3565,0.3517,0.3517,0.3516,0,0,0.2109,0.2196,0.2276,0.2361,0.249,0.2568,0.2587,0.273,0.2785,0.2903,0.2972,0.3058,0.3233,0.332,0.3387,0.3444,0.3493,0.3475,0.3468,0.3529,0.3533,0.3536,0.3557,0.3564,0.3482,0.3482,0.3482,0,0.2078,0.2218,0.2312,0.2404,0.2473,0.2557,0.264,0.2718,0.2874,0.2921,0.2929,0.3151,0.3242,0.3377,0.339,0.3442,0.3468,0.3459,0.3524,0.3529,0.3534,0.3555,0.3563,0.3479,0.3479,0.3479,0.348,0,0.2173,0.2269,0.2319,0.2465,0.2541,0.2627,0.2736,0.2802,0.2856,0.2934,0.3054,0.3166,0.3293,0.333,0.3385,0.3473,0.3475,0.3502,0.3517,0.3533,0.3555,0.3564,0.3474,0.3475,0.3476,0.3477,0,0,0.215,0.2347,0.2364,0.2432,0.258,0.2657,0.2748,0.287,0.2924,0.3029,0.3109,0.3255,0.3281,0.3357,0.3423,0.3477,0.3516,0.3498,0.3503,0.3498,0.3621,0.3599,0.3607,0.3548,0.355,0.3552,0.361,0,0.2195,0.236,0.2447,0.2576,0.2666,0.2747,0.2827,0.2927,0.3002,0.3092,0.3176,0.3278,0.3304,0.335,0.3406,0.3498,0.3542,0.3496,0.3626,0.3629,0.3592,0.3619,0.3597,0.3647,0.3619,0.3621,0.3622,0,0.227,0.2372,0.2508,0.2646,0.2687,0.2757,0.2877,0.296,0.3076,0.3127,0.3212,0.3277,0.3378,0.3383,0.3524,0.3491,0.355,0.3603,0.3607,0.3623,0.3627,0.3637,0.3665,0.3672,0.3637,0.3635,0.3634,0,0.2239,0.2411,0.2516,0.2571,0.2734,0.2781,0.2852,0.2967,0.3035,0.314,0.3186,0.3301,0.3365,0.3454,0.3549,0.3544,0.3681,0.3695,0.3728,0.3726,0.3754,0.3751,0.3792,0.379,0.379,0.379,0.379,0,0.2281,0.2362,0.2504,0.2568,0.2662,0.2762,0.2852,0.293,0.3031,0.3113,0.319,0.3266,0.3386,0.3477,0.3553,0.3659,0.3687,0.3732,0.3752,0.3726,0.372,0.3766,0.3766,0.3792,0.3792,0.3791,0.3791,0,0.2263,0.2362,0.2481,0.2625,0.2663,0.2726,0.285,0.2917,0.2995,0.3098,0.3128,0.3253,0.3364,0.3467,0.3616,0.3667,0.3774,0.3798,0.3734,0.3745,0.3772,0.3768,0.3845,0.3861,0.3847,0.3847,0.3847,0,0.2283,0.2347,0.2498,0.2557,0.2626,0.2721,0.279,0.2892,0.2962,0.3098,0.3148,0.3264,0.3363,0.3537,0.3642,0.3757,0.3785,0.3804,0.3803,0.3775,0.3786,0.3781,0.3789,0.3802,0.3802,0.3802,0.3801,0,0.2309,0.2354,0.2451,0.2564,0.2644,0.2739,0.2837,0.2881,0.3002,0.3076,0.319,0.3266,0.3417,0.3532,0.3658,0.3733,0.3788,0.3801,0.3815,0.3789,0.375,0.3772,0.373,0.3799,0.3799,0.3799,0.3799,0.3799,0.2312,0.2372,0.2488,0.2593,0.2676,0.2765,0.2834,0.2922,0.3017,0.3147,0.3202,0.3317,0.3432,0.3607,0.3681,0.3774,0.3786,0.3806,0.3811,0.3815,0.381,0.3734,0.3798,0.3798,0.3798,0.3798,0.3798,0,0.2342,0.242,0.2515,0.2648,0.2731,0.2773,0.2883,0.295,0.305,0.3152,0.3247,0.3378,0.3489,0.3603,0.3721,0.3774,0.3802,0.3802,0.38,0.3816,0.3792,0.3768,0.3777,0.3777,0.3777,0.3777,0.3777,0.3777,0.2367,0.2472,0.2531,0.2678,0.2757,0.2869,0.2928,0.3011,0.3093,0.3235,0.3328,0.34,0.3508,0.3635,0.374,0.3771,0.3811,0.3804,0.3841,0.3817,0.3818,0.3818,0.3797,0.3811,0.3811,0.3858,0.3858,0.3858]},{"header":{"parameterUnit":"m.s-1","parameterCategory":1,"la1":30.2991,"la2":30.254,"lo1":-89.0895,"lo2":-89.0444,"dy":0.0017,"dx":0.0017,"nx":28,"ny":28,"refTime":"2025-07-03T21:00:00:Z","depth":0,"parameterNumber":3,"parameterNumberName":"V-component_of_WINDS"},"data":[0,0,0,0,0,0,0,0,0,0,0,0,0,0,0,0,0,0,0,0,0,0,0,0,0,0,0,0,0,0,0,0,0,0,0,0,0,0,0,0,0,0,0,0,0,0,0,0,0,0,0,0,0,0,0,0,0,0,1.0286,1.0287,0,1.0389,1.039,1.0391,1.0355,1.0353,1.0351,1.0349,1.0456,1.046,1.0465,0,0,0,0,0,0,0,0,0,0,0,0,0,1.0057,1.0061,1.0286,1.0287,1.0289,1.0389,1.039,1.0391,1.0356,1.0353,1.035,1.0348,1.0454,1.046,1.0466,0,0,0,0,0,0,0,0,0,0,0,0,0,1.0158,1.0063,1.0286,1.0283,1.0284,1.0388,1.039,1.0392,1.0356,1.0353,1.0349,1.0346,1.0452,1.0459,1.0467,1.0581,0,0,1.0489,1.0493,0,0,0,0,0,0,0,0,1.0152,1.0166,1.0282,1.0283,1.0284,1.0356,1.0348,1.0455,1.0357,1.0329,1.0349,1.0345,1.0425,1.0435,1.0462,1.0586,1.0591,1.049,1.0495,1.0498,1.05,0,0,0,0,0,0,0,1.0145,1.0162,1.0327,1.0284,1.0285,1.0276,1.0286,1.0369,1.0395,1.0331,1.0329,1.0341,1.0425,1.0454,1.0464,1.0592,1.049,1.0497,1.0501,1.0504,1.081,1.0813,0,0,0,0,0,0,1.0138,1.0156,1.0323,1.033,1.0208,1.0282,1.0294,1.0336,1.0394,1.0399,1.0344,1.0339,1.0443,1.0455,1.0467,1.0601,1.0498,1.0505,1.0509,1.0806,1.0811,1.0814,0,0,0,0,0,0,1.0133,1.0153,1.0319,1.0242,1.0263,1.029,1.0337,1.034,1.0369,1.0404,1.0408,1.0369,1.0441,1.0457,1.0552,1.0605,1.0508,1.0515,1.0802,1.0807,1.0813,1.0873,0,0,0,0,0,0,1.0127,1.0152,1.0196,1.0244,1.0267,1.0403,1.0341,1.0345,1.0382,1.0377,1.0429,1.0434,1.044,1.0541,1.0559,1.0613,1.0521,1.0797,1.0804,1.0811,1.0866,1.088,1.0891,0,0,0,0,0,1.0119,1.0211,1.0199,1.0219,1.0323,1.0406,1.0419,1.0424,1.0387,1.0431,1.0452,1.0432,1.0596,1.0551,1.0571,1.0628,1.0794,1.0802,1.081,1.086,1.0877,1.0891,0,0,0,0,0,0,1.0171,1.0217,1.0204,1.0315,1.0356,1.04,1.0456,1.0442,1.0496,1.0489,1.0492,1.0504,1.06,1.0624,1.0573,1.0739,1.0689,1.0702,1.072,1.0736,1.0748,1.074,1.0527,0,0,0,0,0,1.0195,1.0259,1.0295,1.0389,1.041,1.043,1.0466,1.0465,1.0509,1.0527,1.0555,1.0598,1.0658,1.0699,1.0757,1.0869,1.0878,1.0918,1.093,1.094,1.0951,1.1007,1.1024,1.0841,1.0841,1.0841,0,0,1.0247,1.028,1.032,1.04,1.0433,1.0497,1.0445,1.0517,1.0563,1.0538,1.0628,1.065,1.0698,1.08,1.0847,1.0823,1.1003,1.0951,1.0959,1.0964,1.1017,1.1035,1.105,1.0847,1.0846,1.0845,0,0,1.0373,1.0405,1.0484,1.0516,1.0564,1.0576,1.0594,1.0639,1.0652,1.0742,1.0722,1.0778,1.0884,1.0917,1.0948,1.108,1.1062,1.1099,1.1164,1.1219,1.1233,1.1246,1.129,1.1306,1.1109,1.111,1.111,0,1.0431,1.0527,1.0527,1.0598,1.0633,1.061,1.0688,1.072,1.0785,1.0809,1.0781,1.0909,1.094,1.1048,1.1079,1.1106,1.1126,1.1093,1.1231,1.1244,1.1255,1.1297,1.1314,1.1113,1.1113,1.1113,1.1112,0,1.0593,1.066,1.0718,1.0778,1.0819,1.0895,1.0905,1.0946,1.094,1.0954,1.1043,1.1079,1.1141,1.1167,1.1164,1.1273,1.1256,1.1229,1.1179,1.1277,1.1316,1.1332,1.1119,1.1118,1.1116,1.1115,0,0,1.0759,1.0814,1.0836,1.086,1.0909,1.0961,1.1033,1.1092,1.1125,1.117,1.1229,1.1316,1.129,1.1325,1.1324,1.1373,1.147,1.1339,1.134,1.136,1.1588,1.1606,1.1625,1.1458,1.1461,1.1464,1.1583,0,1.0886,1.1012,1.1012,1.1128,1.1187,1.1163,1.1225,1.1261,1.1274,1.1326,1.134,1.1401,1.1364,1.1384,1.143,1.1448,1.1515,1.144,1.1511,1.1514,1.1499,1.1646,1.1667,1.1778,1.1598,1.1601,1.1603,0,1.1053,1.1099,1.122,1.1255,1.128,1.1336,1.1388,1.1438,1.1476,1.1482,1.1518,1.1509,1.158,1.1527,1.1623,1.1571,1.16,1.1613,1.1617,1.1623,1.1564,1.1654,1.1814,1.183,1.1628,1.1626,1.1624,0,1.1157,1.1251,1.1333,1.1356,1.14,1.1439,1.1459,1.1494,1.1528,1.1573,1.1594,1.1648,1.1677,1.1717,1.1721,1.1683,1.1817,1.1765,1.1822,1.1822,1.1851,1.1849,1.2016,1.1872,1.1872,1.1872,1.1872,0,1.1299,1.1374,1.138,1.1431,1.1512,1.151,1.159,1.1607,1.1637,1.169,1.1673,1.1722,1.1725,1.1775,1.1779,1.1856,1.187,1.1875,1.1875,1.1876,1.1875,1.1895,1.1886,1.1876,1.1875,1.1874,1.1874,0,1.143,1.1438,1.1526,1.1559,1.1568,1.1627,1.1654,1.1701,1.1711,1.1777,1.1793,1.1808,1.1866,1.1873,1.1942,1.1944,1.2035,1.2028,1.2022,1.202,1.2075,1.2069,1.2259,1.2283,1.2126,1.2127,1.2128,0,1.152,1.1576,1.1613,1.1646,1.1667,1.1721,1.1754,1.1753,1.1788,1.1833,1.1874,1.1929,1.1974,1.2066,1.2083,1.2134,1.2127,1.2189,1.2134,1.2132,1.2124,1.212,1.2124,1.22,1.2202,1.2203,1.2205,0,1.1677,1.1676,1.1725,1.1773,1.1812,1.185,1.1886,1.1914,1.1917,1.1957,1.2014,1.2048,1.2115,1.2169,1.2218,1.2238,1.2221,1.2221,1.2237,1.2238,1.2231,1.2232,1.2049,1.2217,1.2216,1.2215,1.2214,1.2214,1.1789,1.1835,1.1867,1.1919,1.1945,1.1978,1.2022,1.2036,1.2083,1.2137,1.2133,1.2195,1.2227,1.2291,1.2313,1.2361,1.234,1.2364,1.2369,1.2374,1.2378,1.2224,1.237,1.237,1.237,1.2369,1.2369,0,1.1942,1.196,1.2008,1.2057,1.2097,1.2076,1.2113,1.2148,1.2203,1.2234,1.2276,1.234,1.2391,1.241,1.2459,1.2493,1.2486,1.2506,1.2503,1.2507,1.2396,1.2376,1.251,1.251,1.251,1.251,1.251,1.251,1.2027,1.2103,1.2105,1.2193,1.221,1.227,1.2292,1.2321,1.2345,1.2416,1.2457,1.2468,1.2494,1.2543,1.2588,1.2592,1.261,1.2633,1.2633,1.2529,1.2515,1.2502,1.2483,1.2637,1.2637,1.274,1.2741,1.2742]}]]